Flag for Canada Weather past 2 weeks in Gatineau, Quebec, Canada

Now
43 °F

Clear.


Feels Like: 39 °F
Forecast: 39 / 56 °F
Wind: 7 mph from West

Location: Ottawa Int'L. Ont.

Current Time: Oct 25, 2014 at 12:22:50 AM

Latest Report: Oct 25, 2014 at 12:00 AM


Visibility: 15 mi

Pressure: 29.83 "Hg

Humidity: 71%

Dew point: 34 °F

Location of GatineauLocation

Historic Weather in Gatineau — Graph

°F

Gatineau temperature yesterday

Maximum temperature yesterday: 61 °F (at 3:00 PM)
Minimum temperature yesterday: 43 °F (at 3:00 AM)
Average temperature yesterday: 50 °F

Past Weeks' High & Low Weather Summary

 TemperatureHumidityPressure
High77 °F (Oct 14, 1:00 PM)100% (Oct 10, 6:00 AM)30.30 "Hg (Oct 10, 6:00 AM)
Low28 °F (Oct 20, 3:00 AM)41% (Oct 12, 2:00 PM)29.44 "Hg (Oct 18, 4:00 AM)
Average50 °F80%29.95 "Hg
* Reported Oct 9 11:00 PM — Oct 24 11:00 PM, Gatineau, Weather by CustomWeather, © 2014

Note: Actual official high and low records may vary slightly from our data, if they occured in-between our weather recording intervals... More about our weather records

Advertising

Gatineau weather history for previous 24 hours

 ConditionsComfort  
Time TempWeatherWind HumidityBarometerVisibility
11:00 PM
Oct 24
48 °FClear.6 mph66%29.83 "Hg15 mi
10:00 PM48 °FClear.9 mph66%29.83 "Hg15 mi
9:00 PM46 °FClear.5 mph71%29.84 "Hg15 mi
8:00 PM50 °FPassing clouds.5 mph62%29.85 "Hg15 mi
7:00 PM52 °FPassing clouds.6 mph62%29.85 "Hg15 mi
6:00 PM54 °FPassing clouds.7 mph63%29.84 "Hg15 mi
5:00 PM59 °FScattered clouds.7 mph51%29.84 "Hg15 mi
4:00 PM61 °FScattered clouds.6 mph48%29.85 "Hg15 mi
3:00 PM61 °FScattered clouds.8 mph42%29.85 "Hg15 mi
2:00 PM59 °FScattered clouds.7 mph45%29.87 "Hg15 mi
1:00 PM57 °FScattered clouds.7 mph51%29.90 "Hg15 mi
12:00 PM55 °FPassing clouds.6 mph55%29.92 "Hg15 mi
11:00 AM54 °FScattered clouds.2 mph58%29.93 "Hg15 mi
10:00 AM52 °FBroken clouds.7 mph67%29.94 "Hg15 mi
9:00 AM48 °FBroken clouds.6 mph82%29.94 "Hg15 mi
8:00 AM45 °FPassing clouds.3 mph87%29.94 "Hg15 mi
7:00 AM45 °FPassing clouds.3 mph87%29.94 "Hg15 mi
6:00 AM45 °FPassing clouds.6 mph87%29.94 "Hg15 mi
5:00 AM45 °FOvercast.No wind93%29.95 "Hg15 mi
4:00 AM43 °FPassing clouds.3 mph93%29.94 "Hg15 mi
3:00 AM43 °FPartly cloudy.3 mph100%29.93 "Hg15 mi
2:00 AM46 °FPassing clouds.3 mph93%29.94 "Hg15 mi
1:00 AM46 °FPartly cloudy.5 mph100%29.95 "Hg15 mi
12:00 AM48 °FPassing clouds.7 mph94%29.96 "Hg15 mi
Weather by CustomWeather, © 2014

See weather overviewHow to use our weather pages